Location: Unspecified
(35.7250°N, 0.0000°E)
Time: 22:14:41
(UTC+00:00)

Tiros 1 despin weight - All Passes

Search period start: 20 June 2019 00:00
Search period end: 30 June 2019 00:00
Orbit: 595 x 642 km, 48.2° (Epoch: 19 June)

Date Brightness Start Highest point End Pass type
(mag) Time Alt. Az. Time Alt. Az. Time Alt. Az.
20 Jun - 00:52:45 10° W 00:56:38 29° NNW 01:00:29 10° NE visible
20 Jun - 02:36:31 10° NW 02:39:17 16° N 02:42:03 10° NE visible
20 Jun - 04:18:31 10° NW 04:22:03 23° NNE 04:25:35 10° ENE daylight
20 Jun - 05:59:39 10° NW 06:04:06 82° NE 06:08:33 10° SE daylight
20 Jun - 07:42:36 10° W 07:45:10 15° SW 07:47:47 10° SSW daylight
20 Jun - 21:47:01 10° S 21:50:15 20° SE 21:53:28 10° E night (unlit)
20 Jun - 23:27:02 10° WSW 23:31:28 66° NNW 23:35:52 10° NE visible
21 Jun - 01:10:16 10° WNW 01:13:37 21° NNW 01:16:59 10° NE visible
21 Jun - 02:53:36 10° NW 02:56:26 16° N 02:59:16 10° NE visible
21 Jun - 04:34:58 10° NW 04:39:00 33° NNE 04:43:02 10° E daylight
21 Jun - 06:16:23 10° WNW 06:20:40 49° SW 06:24:58 10° SSE daylight
21 Jun - 22:02:26 10° SSW 22:06:39 41° SE 22:10:50 10° ENE visible
21 Jun - 23:44:05 10° W 23:48:13 37° NNW 23:52:21 10° NE visible
22 Jun - 01:27:48 10° NW 01:30:43 17° N 01:33:38 10° NE visible
22 Jun - 03:10:19 10° NNW 03:13:33 19° NNE 03:16:47 10° ENE visible
22 Jun - 04:51:27 10° NW 04:55:48 57° NNE 05:00:10 10° ESE daylight
22 Jun - 06:33:34 10° W 06:37:05 23° SW 06:40:38 10° S daylight
22 Jun - 20:40:13 10° SSE 20:42:10 13° SE 20:44:07 10° ESE night (unlit)
22 Jun - 22:18:42 10° SW 22:23:11 85° SE 22:27:38 10° NE visible
23 Jun - 00:01:28 10° WNW 00:05:08 25° NNW 00:08:48 10° NE visible
23 Jun - 01:45:07 10° NW 01:47:53 16° N 01:50:37 10° NE visible
23 Jun - 03:26:50 10° NW 03:30:34 26° NNE 03:34:19 10° E visible
23 Jun - 05:08:02 10° WNW 05:12:27 75° SW 05:16:53 10° SE daylight
23 Jun - 06:52:31 10° WSW 06:53:24 10° SW 06:54:16 10° SW daylight
23 Jun - 20:54:42 10° SSW 20:58:30 27° SE 21:02:16 10° ENE visible
23 Jun - 22:35:30 10° WSW 22:39:52 51° NNW 22:44:12 10° NE visible
24 Jun - 00:19:01 10° WNW 00:22:11 19° NNW 00:25:20 10° NNE visible
24 Jun - 02:02:02 10° NNW 02:05:01 17° N 02:08:00 10° NE visible
24 Jun - 03:43:17 10° NW 03:47:27 41° NNE 03:51:39 10° E visible
24 Jun - 05:24:56 10° WNW 05:28:58 35° SW 05:33:00 10° SSE daylight
24 Jun - 21:10:33 10° SW 21:14:57 57° SE 21:19:20 10° ENE visible
24 Jun - 22:52:43 10° W 22:56:42 31° NNW 23:00:40 10° NE visible
25 Jun - 00:36:30 10° NW 00:39:19 16° N 00:42:07 10° NE visible
25 Jun - 02:18:39 10° NW 02:22:06 22° NNE 02:25:33 10° ENE visible
25 Jun - 03:59:47 10° NW 04:04:12 74° NE 04:08:37 10° ESE visible
25 Jun - 05:42:29 10° W 05:45:20 17° SW 05:48:12 10° S daylight
25 Jun - 19:47:20 10° S 19:50:23 18° SE 19:53:25 10° E visible
25 Jun - 21:27:04 10° WSW 21:31:33 73° NW 21:36:01 10° NE visible
25 Jun - 23:10:12 10° WNW 23:13:41 22° NNW 23:17:08 10° NE visible
26 Jun - 00:53:39 10° NW 00:56:29 16° N 00:59:17 10° NE visible
26 Jun - 02:35:07 10° NW 02:39:04 31° NNE 02:43:01 10° E visible
26 Jun - 04:16:29 10° WNW 04:20:47 55° SW 04:25:06 10° SE visible
26 Jun - 20:02:36 10° SSW 20:06:46 37° SE 20:10:55 10° ENE visible
26 Jun - 21:44:03 10° W 21:48:18 40° NNW 21:52:31 10° NE visible
26 Jun - 23:27:45 10° NW 23:30:45 17° N 23:33:45 10° NE visible
27 Jun - 01:10:26 10° NNW 01:13:36 19° NNE 01:16:46 10° ENE visible
27 Jun - 02:51:35 10° NW 02:55:54 52° NNE 03:00:12 10° ESE visible
27 Jun - 04:33:34 10° WNW 04:37:14 26° SW 04:40:54 10° S daylight
27 Jun - 18:40:52 10° SSE 18:42:19 11° SE 18:43:45 10° ESE daylight
27 Jun - 20:18:46 10° SW 20:23:18 78° SE 20:27:46 10° ENE visible
27 Jun - 22:01:24 10° W 22:05:12 26° NNW 22:08:58 10° NE visible
27 Jun - 23:45:07 10° NW 23:47:54 16° N 23:50:40 10° NE visible
28 Jun - 01:26:57 10° NW 01:30:38 25° NNE 01:34:18 10° ENE visible
28 Jun - 03:08:09 10° NW 03:12:35 83° SW 03:17:00 10° SE visible
28 Jun - 04:51:54 10° WSW 04:53:33 12° SW 04:55:12 10° SSW daylight
28 Jun - 18:54:56 10° S 18:58:38 25° SE 19:02:18 10° ENE daylight
28 Jun - 20:35:30 10° WSW 20:39:57 56° NNW 20:44:21 10° NE visible
28 Jun - 22:18:56 10° WNW 22:22:13 19° NNW 22:25:29 10° NE visible
29 Jun - 00:02:06 10° NW 00:05:03 17° N 00:07:59 10° NE visible
29 Jun - 01:43:25 10° NW 01:47:33 38° NNE 01:51:40 10° E visible
29 Jun - 03:24:58 10° WNW 03:29:06 39° SW 03:33:13 10° SSE visible
29 Jun - 19:10:39 10° SW 19:15:04 51° SE 19:19:26 10° ENE daylight
29 Jun - 20:52:39 10° W 20:56:45 33° NNW 21:00:50 10° NE visible
29 Jun - 22:36:27 10° NW 22:39:20 17° N 22:42:13 10° NE visible
